GFSSGP_850_rhum_297.txt.gz
RH
21 16 24 25 66 80 94 87 67 75 78 76 79 80 82 85 82 90 87 80 78 83 86 84 70 64 62 39 26 23 28 32 34 43 40 59 62 65 62 50 55 57 62 64 68 75 78 78 74
23 22 31 41 83 85 98 78 85 93 88 79 80 80 86 92 78 84 89 96 83 83 85 81 70 68 58 36 26 23 25 30 33 34 46 53 53 60 48 51 54 56 63 67 78 83 82 83 83
27 26 44 71 94 90 91 91 95 90 89 76 81 92 96 99 85 94 98 100 88 75 80 75 70 65 47 34 25 24 26 30 31 30 43 43 41 57 44 44 45 52 58 70 84 87 86 87 89
20 26 35 64 83 84 85 87 84 81 80 87 80 89 98 100 94 91 97 78 64 61 66 72 68 56 39 29 22 22 26 32 33 30 34 36 33 30 30 38 42 49 56 70 84 89 89 93 92
24 31 52 64 57 48 50 83 72 77 90 89 78 96 99 98 99 92 93 80 55 51 53 53 49 42 37 30 24 25 29 34 34 31 33 30 32 35 33 36 40 45 51 60 82 85 88 90 84
22 26 53 58 54 44 46 76 82 86 80 76 85 96 99 99 100 100 94 73 56 55 73 68 57 40 34 29 26 28 32 37 37 33 33 34 33 34 38 36 35 40 45 48 64 76 87 84 84
27 32 42 42 42 40 38 48 55 61 65 70 80 93 98 96 100 100 100 93 82 86 90 90 82 56 47 44 32 30 33 36 37 37 34 35 35 36 34 34 34 34 36 40 46 68 81 81 87
24 34 40 39 43 44 39 48 49 56 67 61 68 83 98 89 92 100 100 92 82 83 97 96 88 87 88 83 54 36 34 39 40 39 38 36 38 42 38 37 32 30 30 32 36 46 71 76 80
22 37 44 40 36 35 35 43 48 57 62 68 75 87 89 84 76 82 92 97 95 90 96 99 100 91 94 88 86 75 61 54 53 45 42 39 39 40 46 43 38 31 26 26 27 30 35 45 74
25 40 34 28 29 33 33 36 36 41 44 52 63 70 72 63 69 59 61 64 66 72 66 72 91 100 99 97 84 85 89 80 77 68 63 73 69 62 52 56 60 51 37 22 21 22 23 27 47
24 36 27 27 27 30 32 35 37 40 45 47 54 62 53 48 47 46 47 46 46 40 37 49 59 69 89 98 99 86 98 94 76 78 76 75 86 86 82 70 58 70 53 42 32 27 20 54 66
29 26 26 26 25 28 33 38 42 43 46 49 49 45 41 42 42 41 36 34 32 27 28 29 37 46 57 73 85 94 98 81 95 86 81 75 78 80 85 84 79 73 70 56 43 54 40 50 57
26 24 24 24 28 31 34 36 39 44 43 41 40 38 37 36 32 28 28 25 24 20 21 20 22 32 44 44 56 72 86 92 99 99 98 93 75 73 74 84 88 83 76 68 67 55 60 68 70
23 23 22 22 23 26 30 32 37 42 37 37 33 33 32 32 32 29 23 20 16 15 16 18 19 22 30 40 49 58 67 78 83 88 94 94 98 81 76 76 82 90 82 74 69 72 76 73 73
21 25 22 22 23 25 27 35 38 39 33 34 35 35 35 36 35 36 36 34 35 31 25 15 16 20 23 39 54 57 62 55 56 60 62 74 89 96 91 86 86 88 77 78 71 70 70 71 71
20 17 24 21 20 23 26 40 33 36 30 39 38 36 36 39 40 40 39 38 38 38 36 34 22 16 19 26 37 48 48 43 39 39 38 40 45 56 70 89 93 90 94 89 77 74 68 65 62
20 20 20 24 22 23 27 37 31 35 32 39 37 36 37 38 40 41 41 43 42 42 40 37 35 23 19 19 24 30 35 33 33 29 29 32 36 44 59 81 75 92 95 99 99 78 78 69 63
18 20 20 28 26 29 35 37 31 34 32 35 35 35 36 38 41 44 44 45 44 43 43 43 36 31 23 20 20 21 24 26 28 27 30 28 28 32 42 57 76 85 90 95 99 100 92 70 70
19 20 27 27 29 32 38 40 37 35 32 34 34 35 35 38 43 45 46 47 46 46 47 44 42 46 31 21 19 18 20 21 21 23 26 25 27 30 32 44 64 72 84 99 100 99 86 72 74
17 20 20 24 27 34 40 39 36 35 34 31 30 29 27 29 28 30 39 44 46 48 49 47 49 49 43 33 26 22 20 19 19 19 18 20 20 24 28 33 41 57 75 99 99 100 100 95 89
17 19 17 26 31 36 39 44 37 29 31 31 28 25 27 26 27 28 33 43 44 46 48 46 48 50 48 44 30 26 23 21 19 18 17 17 18 19 20 22 29 36 50 70 96 98 100 100 100
15 14 14 21 40 55 36 46 44 32 31 30 26 27 27 26 29 32 39 41 41 45 46 46 49 45 46 42 33 29 26 24 23 22 21 18 17 18 18 21 21 24 32 46 70 85 93 98 100
16 16 17 17 22 27 33 40 42 32 33 31 27 26 26 29 30 33 36 40 42 45 47 48 50 48 48 46 37 31 29 28 25 21 19 17 17 16 15 17 20 22 23 27 40 49 71 84 93
18 27 43 45 43 50 32 37 36 39 28 28 26 28 29 30 32 33 35 38 43 43 47 48 48 49 47 48 45 40 29 24 21 19 19 18 17 16 16 15 16 17 18 20 26 35 46 50 61
45 58 75 56 64 56 36 38 33 38 28 23 26 30 30 32 31 30 35 35 40 38 45 45 48 48 46 47 47 45 42 34 23 23 21 20 19 17 15 16 17 19 18 16 19 24 35 49 56
31 60 70 44 68 54 27 37 54 34 24 21 23 27 31 32 33 34 34 34 35 38 46 45 47 46 45 45 45 44 43 43 43 24 24 25 21 18 18 17 15 14 15 16 17 22 24 29 45
35 57 46 72 67 50 35 35 38 28 31 27 30 32 32 33 34 34 33 32 34 35 34 36 40 43 44 43 40 43 46 47 46 37 26 26 26 20 18 20 18 14 12 12 13 19 20 20 23
37 42 47 71 35 50 49 44 55 34 34 37 36 33 31 34 33 32 30 29 31 33 34 33 34 37 38 38 38 43 44 47 49 42 25 22 23 20 16 16 16 17 14 15 14 14 14 12 14
42 64 68 63 74 66 71 48 43 32 31 38 32 30 30 30 30 29 29 30 32 33 32 32 33 33 35 36 37 38 39 39 44 41 38 21 20 20 17 15 14 16 16 16 16 17 15 15 14
42 39 56 68 46 84 81 45 34 31 23 25 29 27 24 27 26 27 29 30 32 33 31 30 31 32 33 35 36 36 38 37 37 36 38 28 23 19 17 16 16 18 20 20 19 19 21 23 20

GFSSGP_850_rhum_300.txt.gz
RH
26 24 25 32 70 80 99 99 84 91 83 80 74 79 90 95 84 99 98 98 99 92 85 66 66 61 40 29 27 28 32 33 37 53 64 66 67 59 58 60 60 64 67 71 72 76 77 74 72
29 37 40 48 82 91 92 85 96 96 90 79 83 87 92 96 95 94 94 98 98 92 80 71 70 60 40 32 29 30 32 32 34 58 61 71 75 53 56 53 57 58 65 76 76 79 80 83 82
38 40 56 88 92 94 96 88 93 95 98 76 88 95 99 99 90 90 91 98 95 86 77 74 67 53 39 31 30 31 35 36 36 44 49 76 89 68 53 50 46 51 62 73 77 83 87 88 76
31 44 48 67 80 89 87 84 83 92 88 92 88 96 99 100 98 95 96 98 85 78 68 58 50 41 37 33 29 32 38 37 38 44 42 45 53 52 54 46 45 50 66 78 84 85 92 87 77
39 45 69 64 78 83 81 80 78 83 97 98 90 97 99 98 100 100 99 89 64 56 46 39 39 38 32 30 31 35 41 41 37 39 41 43 43 46 46 47 50 50 62 81 83 83 89 76 75
29 41 73 66 65 61 64 80 80 82 82 84 93 96 100 100 95 100 100 90 95 77 70 48 44 39 35 31 32 36 42 42 41 40 40 41 41 40 41 42 44 51 52 66 79 81 85 74 70
36 48 51 51 60 62 51 60 64 70 72 85 91 95 99 98 100 97 99 100 100 98 86 88 65 66 68 45 33 34 39 42 44 44 44 42 41 39 39 42 42 41 45 50 64 76 82 76 72
28 40 43 46 52 62 51 64 72 74 80 85 92 93 99 96 91 92 91 96 95 94 99 100 100 95 91 82 55 42 40 41 43 44 46 48 50 47 46 40 39 42 43 43 48 70 77 76 73
24 44 49 40 42 46 49 58 62 74 80 89 93 95 91 77 74 70 80 86 85 86 90 99 100 98 92 90 87 85 80 63 50 44 49 47 50 61 62 64 54 40 32 36 40 44 59 66 71
29 48 40 33 36 44 42 43 44 56 66 70 72 62 59 75 66 56 49 46 45 59 62 68 77 95 97 99 80 80 88 83 78 64 62 70 75 78 75 71 71 70 52 30 26 30 32 35 48
29 41 33 35 38 42 45 45 43 49 58 62 67 55 53 40 40 36 33 29 25 24 27 36 45 59 68 90 95 95 84 84 78 75 76 69 75 80 81 77 71 74 73 56 41 30 24 29 43
31 29 30 30 38 41 44 48 53 53 56 47 42 37 30 27 27 26 23 22 19 18 21 24 29 36 43 60 70 81 93 98 93 87 78 81 76 75 73 77 80 78 73 72 56 55 29 60 70
28 30 35 38 38 42 41 49 52 54 43 34 33 31 32 31 30 29 25 23 20 17 16 18 21 23 33 39 49 60 73 82 88 96 97 93 95 79 72 74 78 80 84 74 73 64 73 60 66
27 31 34 36 34 36 40 42 42 49 35 32 32 36 37 36 36 34 33 35 33 32 28 16 16 22 26 28 40 44 47 49 51 58 67 82 89 98 89 79 75 76 86 81 75 73 73 67 70
25 30 26 27 32 34 32 44 47 43 32 32 34 36 37 38 36 37 37 36 37 34 33 29 19 18 19 24 24 25 30 30 31 34 34 38 48 70 83 92 97 79 76 79 75 72 72 72 69
20 20 38 27 23 27 34 51 40 42 34 37 37 37 37 40 40 40 41 39 38 37 36 31 29 19 18 21 24 24 23 22 22 22 22 25 31 38 54 72 74 82 97 90 91 80 75 72 71
19 23 36 26 23 26 36 44 37 40 38 39 40 40 38 42 44 45 44 44 42 42 37 32 37 26 20 21 23 22 20 20 21 20 20 20 22 26 35 46 56 77 85 96 99 98 94 83 64
18 24 25 28 28 35 41 42 37 39 40 35 38 37 38 42 46 47 46 45 45 42 40 39 41 33 25 22 20 19 18 18 19 18 18 18 19 22 24 29 40 57 68 78 99 100 98 94 95
20 25 33 33 30 37 42 47 41 37 40 37 36 34 36 42 44 47 48 47 46 41 43 42 37 34 26 22 21 20 18 18 18 17 17 17 18 18 18 21 25 32 45 69 93 98 99 100 97
28 33 34 30 32 38 41 42 38 39 39 34 34 35 36 35 37 45 48 47 46 45 47 49 40 35 31 28 26 24 22 21 19 18 16 15 15 16 17 18 19 21 27 37 55 64 82 98 100
18 34 31 35 38 38 40 44 40 34 34 35 34 31 30 29 27 32 42 44 45 46 47 49 46 42 35 31 26 24 23 22 21 20 18 16 15 14 14 16 18 19 22 26 34 40 58 62 76
17 15 24 39 43 51 37 46 48 41 35 33 33 30 29 26 28 32 38 40 44 47 47 49 49 43 39 37 25 15 13 15 19 20 19 17 15 15 14 14 14 15 17 18 23 32 36 39 44
16 18 20 21 27 37 42 50 37 41 39 37 32 29 28 28 29 32 38 43 46 48 48 47 50 47 42 40 36 29 20 17 14 13 14 16 17 15 14 14 14 13 13 14 15 17 24 39 46
21 35 43 45 42 47 35 49 40 46 35 32 29 28 28 28 31 34 37 36 40 37 42 45 47 49 47 45 40 39 40 34 28 15 12 12 12 13 13 13 13 12 11 11 12 16 17 20 34
47 47 70 53 63 53 34 46 41 32 34 27 28 27 28 29 31 32 30 30 30 31 36 42 43 44 46 45 40 40 43 43 41 36 18 14 12 11 12 12 12 11 10 9 9 11 14 15 18
42 49 68 37 58 46 39 44 52 35 30 24 23 25 29 30 31 32 29 28 29 33 34 32 33 35 37 39 37 39 42 41 42 42 32 18 18 17 15 14 13 11 10 10 10 9 10 11 11
34 56 50 71 65 54 41 34 39 32 36 28 25 30 29 27 29 28 29 29 30 32 33 33 32 31 32 33 35 37 38 38 39 39 35 30 17 17 16 16 14 13 12 11 11 11 11 12 10
36 45 52 73 25 39 40 49 52 34 36 39 36 30 27 26 29 29 28 28 30 30 33 33 32 32 32 32 34 36 38 39 38 39 40 38 34 19 15 14 15 14 13 13 12 12 12 12 14
49 64 66 61 69 59 60 33 43 36 36 43 32 26 24 24 25 26 27 28 30 30 31 33 32 32 32 31 33 36 36 38 39 38 40 42 41 38 24 15 12 13 13 12 12 12 13 13 13
39 40 54 67 43 83 76 46 35 36 30 29 29 28 28 28 28 32 34 34 34 33 34 34 34 35 35 36 39 38 37 37 39 39 40 41 40 41 42 36 26 14 14 16 16 16 16 16 16

GFSSGP_850_rhum_303.txt.gz
RH
24 28 33 41 51 56 77 94 70 77 76 88 81 85 91 98 84 96 100 99 96 77 70 70 60 41 33 33 38 40 53 57 66 67 69 65 63 74 65 64 71 69 57 62 64 63 65 64 62
33 42 46 49 54 69 94 85 90 85 79 84 86 78 80 91 99 92 90 99 91 78 77 73 57 39 33 32 34 39 37 55 62 61 72 72 55 58 62 56 59 67 71 71 71 69 71 70 64
40 47 56 59 68 78 91 90 91 96 85 78 84 96 98 99 100 97 99 95 87 84 77 63 42 33 30 31 34 41 38 44 64 63 74 86 74 56 53 52 58 62 66 69 69 70 68 72 73
41 46 51 61 82 84 86 87 86 94 91 90 86 98 98 100 99 100 91 90 79 74 62 46 33 29 27 29 34 41 42 40 53 64 70 83 91 60 52 52 52 61 67 72 73 73 77 75 71
43 48 58 74 81 81 78 87 86 92 99 98 86 97 100 98 100 90 93 75 60 58 48 39 32 28 27 29 36 41 41 41 44 56 69 57 58 57 56 55 57 65 76 81 82 81 75 70 69
43 47 62 81 84 72 69 80 85 86 88 91 91 96 100 100 90 98 99 100 99 97 62 47 46 40 32 30 35 39 41 41 40 40 42 51 54 54 55 58 60 63 76 86 85 82 76 74 68
42 46 65 74 75 66 60 67 73 79 86 99 94 93 98 94 86 97 99 99 98 98 99 70 87 90 62 38 34 38 39 41 42 39 40 40 44 49 52 56 57 61 63 68 82 84 82 74 75
39 41 52 55 64 72 61 72 83 83 94 96 97 93 97 79 85 80 82 93 94 96 99 99 88 92 91 83 71 75 51 45 41 41 40 43 47 47 48 46 48 53 55 59 66 79 85 77 71
30 44 56 51 54 66 65 69 76 77 81 83 95 84 78 67 54 54 67 74 70 72 83 92 93 90 91 91 87 88 82 73 51 51 48 46 50 52 60 61 59 50 44 48 52 56 70 79 71
28 36 40 38 51 54 48 56 62 65 70 74 76 63 70 47 41 40 33 28 28 32 39 45 61 73 92 98 96 90 82 89 79 75 60 66 70 73 66 67 69 71 61 48 37 40 43 45 47
32 45 40 42 44 48 50 48 52 48 54 57 63 59 39 28 23 22 18 18 19 20 19 22 30 36 50 68 88 97 95 94 90 82 76 75 72 76 75 76 71 70 74 67 56 42 34 33 36
36 36 41 44 44 43 44 46 49 46 53 53 49 37 29 26 29 32 28 21 15 14 16 20 24 29 35 43 48 71 82 89 94 94 94 83 77 76 73 72 76 77 76 75 72 63 53 32 44
36 40 41 43 46 48 47 50 50 52 51 35 33 34 35 35 36 35 33 31 29 25 18 14 17 20 24 26 35 37 38 44 53 65 79 92 95 96 83 74 71 75 82 81 75 71 70 53 64
36 40 40 40 40 40 42 46 41 52 52 41 37 39 39 37 38 36 35 36 34 32 28 23 16 16 19 20 21 21 24 27 30 30 32 39 53 74 90 92 83 76 76 77 71 73 71 71 67
33 33 29 31 36 33 31 35 42 48 49 43 40 40 40 40 39 39 39 40 40 32 31 29 22 20 20 19 20 19 20 20 20 21 22 26 29 36 50 67 83 93 89 85 77 70 70 72 70
21 22 32 32 24 31 30 44 42 44 42 41 38 38 39 41 43 43 42 42 38 32 36 37 26 21 20 20 19 18 18 17 17 18 19 20 20 22 30 38 46 62 73 78 89 90 82 74 70
15 23 31 30 25 27 30 40 39 43 45 42 42 37 39 42 44 44 43 44 40 38 38 38 30 24 21 20 18 17 17 16 16 16 16 17 18 20 21 24 31 44 51 52 59 80 97 95 70
19 29 29 26 27 29 34 36 36 40 43 41 43 39 40 43 44 45 44 44 39 40 36 36 34 29 27 24 21 19 17 16 16 15 15 16 16 17 17 18 21 24 27 34 46 59 91 99 98
19 23 27 31 29 29 34 35 34 38 41 44 42 42 40 43 43 44 44 45 41 39 34 28 29 29 26 24 23 22 21 19 18 17 16 16 15 14 15 16 17 18 20 24 30 38 63 83 83
23 25 32 30 33 31 37 36 34 38 37 40 38 35 34 33 34 38 42 43 42 42 42 38 28 25 22 19 17 19 21 21 20 20 18 17 16 16 15 14 14 14 15 17 18 20 24 37 62
22 28 32 29 32 32 34 37 36 33 38 38 38 36 34 31 28 34 39 40 42 43 44 43 37 32 28 25 22 14 11 9 10 12 15 16 16 15 14 14 14 13 12 12 13 14 17 22 31
22 18 27 34 30 31 34 23 37 33 34 34 36 37 31 30 28 31 36 39 43 44 43 43 41 39 35 32 30 28 22 17 14 10 9 10 10 11 12 13 13 13 12 12 12 12 13 16 22
18 24 27 26 26 34 38 35 26 36 35 32 34 35 28 28 27 29 35 40 44 47 47 44 44 44 40 34 33 33 32 30 27 20 11 9 9 8 9 9 10 11 11 11 10 10 11 12 15
31 28 30 33 30 25 28 35 17 34 31 29 32 34 27 27 28 31 37 38 39 38 41 40 38 39 36 33 34 33 31 30 28 27 22 13 10 10 9 9 9 9 10 10 10 10 10 10 11
30 28 45 26 33 29 32 40 25 28 30 28 29 32 27 27 28 31 30 29 30 32 31 33 32 33 33 33 34 35 36 36 34 34 33 31 19 10 10 10 10 10 10 10 10 10 10 10 9
41 33 64 38 31 29 36 32 34 28 30 32 29 30 25 27 28 30 28 28 28 29 29 29 30 31 32 32 34 36 38 37 36 36 37 38 36 26 14 10 10 10 11 10 10 11 10 11 12
40 47 42 55 56 45 30 27 29 26 30 31 31 32 26 27 28 28 29 28 29 29 30 32 32 31 33 35 36 35 36 36 38 38 38 39 41 39 36 28 18 11 10 10 10 10 10 11 11
37 39 49 62 46 41 22 27 24 26 26 32 33 32 28 27 29 28 27 28 31 33 34 36 36 36 36 36 37 39 40 38 37 38 38 39 40 40 40 39 39 37 25 13 11 12 12 12 13
49 50 53 48 44 37 25 15 34 32 28 31 32 34 26 25 25 29 30 33 34 35 36 36 36 36 36 36 36 38 38 40 40 39 38 39 41 41 42 43 41 41 41 37 21 15 17 17 16
37 41 40 75 54 60 46 24 31 33 34 34 34 32 30 31 31 32 34 36 36 35 35 34 35 35 34 33 32 33 37 43 43 42 42 45 47 48 48 46 45 44 45 45 41 25 19 19 20

GFSSGP_850_rhum_306.txt.gz
RH
18 24 41 40 30 33 61 71 53 58 76 69 71 70 86 91 77 92 100 98 95 99 100 72 43 34 31 34 40 48 55 71 71 70 68 73 75 62 65 66 65 55 56 59 58 59 57 56 46
25 39 43 30 32 52 93 65 69 66 80 77 74 65 72 92 98 96 98 97 95 98 89 62 42 31 27 33 40 40 57 61 68 82 80 68 69 69 60 62 66 62 63 66 65 68 67 62 61
42 44 35 30 35 59 93 86 91 85 74 66 75 93 96 99 100 100 100 98 97 90 79 48 38 30 27 32 39 40 43 55 60 72 80 78 74 64 66 65 67 65 64 64 69 69 71 72 66
39 36 35 48 80 82 90 84 89 90 88 84 86 97 98 100 99 99 100 97 90 88 64 41 32 28 28 34 40 40 38 43 48 59 77 83 75 61 63 68 68 73 70 66 72 79 75 68 69
34 30 45 69 81 80 82 92 83 88 93 93 79 94 99 98 99 99 78 68 57 48 44 40 33 28 28 33 38 43 42 41 39 43 54 60 57 58 63 65 73 80 84 84 78 80 76 70 70
33 33 50 81 84 68 68 79 87 87 92 95 86 91 99 95 89 95 98 96 97 79 58 73 74 46 30 30 35 38 40 39 41 44 46 48 50 53 57 62 68 77 85 88 87 86 80 78 74
27 31 50 59 65 66 64 73 80 85 84 95 96 90 94 85 92 96 97 97 100 97 91 88 94 90 65 46 49 39 36 37 36 37 42 45 47 50 51 55 60 63 66 76 86 84 84 82 81
36 37 45 47 54 69 63 77 77 74 86 92 87 85 80 74 79 75 74 76 90 92 93 92 92 95 94 92 84 79 63 42 39 40 37 44 48 53 54 51 51 54 57 60 66 76 86 80 76
31 33 44 48 51 73 66 66 73 75 79 88 88 78 66 41 38 49 50 57 65 55 69 71 90 95 97 97 100 94 85 80 69 52 48 67 89 88 87 65 58 50 44 46 50 54 64 76 75
26 32 38 39 54 58 58 60 65 64 63 70 78 73 51 30 29 24 24 26 32 50 33 39 47 56 81 96 99 99 95 94 84 77 66 61 72 73 69 69 67 69 59 52 39 35 39 42 67
31 44 44 47 50 52 52 49 45 42 42 55 50 45 35 23 19 22 34 33 39 52 36 43 32 38 43 59 75 83 93 98 99 96 89 83 75 72 85 88 92 93 85 80 82 82 68 67 58
38 40 42 46 45 42 39 37 37 37 38 38 34 34 36 36 39 37 37 36 37 40 32 26 20 22 26 52 39 62 55 64 69 80 92 97 94 87 84 77 75 92 94 88 90 76 90 82 62
36 38 40 38 36 34 32 31 30 31 33 34 35 34 35 37 39 39 39 39 41 42 36 23 14 14 17 18 21 18 25 25 30 30 38 52 75 90 96 91 85 78 80 82 97 93 87 85 78
35 35 33 31 30 31 28 31 30 35 34 35 35 34 35 35 35 38 38 40 43 47 49 44 18 16 16 15 15 17 18 26 23 21 21 24 29 40 64 88 94 94 86 82 78 92 98 93 86
29 27 25 24 24 24 22 27 30 35 33 33 34 33 34 36 38 42 41 40 41 48 50 38 38 17 16 17 19 19 17 20 19 22 19 19 19 22 29 47 64 64 80 87 92 85 82 88 99
19 17 22 21 19 22 22 30 33 35 29 30 32 34 36 39 38 42 42 40 43 51 53 37 34 20 17 17 16 18 16 18 19 19 16 16 16 17 21 32 25 30 37 84 85 96 92 90 74
14 18 20 19 19 19 18 24 29 32 25 27 27 30 34 38 39 43 43 42 44 52 54 51 24 21 20 19 19 23 20 21 22 18 15 14 14 15 16 17 18 20 34 56 58 91 94 77 91
16 18 18 16 18 17 18 19 26 29 28 24 27 30 32 34 37 44 45 49 46 56 56 54 47 25 26 44 47 50 50 50 37 25 17 16 16 15 14 14 14 19 30 30 19 30 87 95 82
14 14 16 18 19 16 19 20 22 27 27 26 25 26 29 32 38 42 48 47 46 52 52 53 50 46 44 39 39 41 46 48 48 49 18 16 16 15 15 16 15 14 14 13 14 17 52 66 68
12 13 19 21 21 19 19 20 21 26 27 26 25 25 28 31 37 42 45 48 50 50 52 48 48 50 45 41 33 15 21 22 24 12 17 9 10 11 13 12 15 12 16 12 12 12 20 60 69
14 13 18 17 22 20 19 20 23 24 26 28 29 26 26 26 28 36 40 44 48 48 52 51 52 54 52 53 41 37 35 34 38 40 33 8 8 8 7 7 8 9 12 13 12 11 14 56 58
15 14 18 20 17 14 21 13 20 20 24 26 27 28 27 26 27 31 36 40 47 49 52 54 54 54 48 43 47 52 40 38 47 44 37 32 8 7 7 8 7 8 11 8 10 10 13 21 57
18 16 18 17 17 18 23 19 20 18 22 22 25 28 28 26 26 29 34 36 41 47 51 54 55 54 52 32 44 51 50 46 47 48 54 49 28 9 8 7 8 8 15 10 9 9 8 25 40
17 20 19 18 17 19 18 19 12 20 19 18 22 26 28 26 27 30 33 37 40 48 54 55 56 52 52 42 40 42 44 49 54 55 54 50 50 44 17 9 8 8 9 10 12 10 11 10 18
18 20 32 26 30 22 20 23 13 17 20 18 20 25 28 26 28 31 31 35 37 40 46 51 51 49 52 51 46 43 35 35 49 55 51 55 53 51 35 28 23 17 11 9 9 9 9 11 12
17 19 44 32 16 16 24 15 26 19 21 22 22 23 28 27 29 31 31 33 33 37 40 44 47 46 45 51 56 57 38 54 53 55 56 55 55 55 36 34 33 33 33 28 16 10 9 9 9
27 25 31 32 37 22 10 15 20 18 19 22 22 24 28 27 29 30 31 33 36 38 41 50 43 47 48 51 55 54 54 48 47 40 42 59 52 56 51 40 40 38 38 38 38 31 18 13 14
31 29 37 54 95 55 13 13 12 17 19 22 23 26 28 27 28 29 31 35 42 44 46 51 50 50 50 52 52 58 62 65 69 69 54 50 50 57 68 64 54 46 46 44 44 46 61 32 18
35 33 37 38 31 32 14 10 22 20 18 22 24 27 28 28 28 31 37 44 45 47 48 50 44 45 48 42 36 34 35 41 62 74 76 78 81 73 75 73 76 75 72 72 76 54 52 49 40
28 28 27 77 81 37 29 15 21 23 24 25 25 28 28 28 36 39 43 45 45 46 46 49 46 45 38 40 41 38 36 36 47 61 71 67 72 68 71 71 75 75 75 76 78 76 63 71 69